Regional Weather Roundup
Issued by NWS

Home | Current Version | Previous Version | Graphics & Text | Print | Product List | Glossary On
Versions: 1 2 3 4 5 6 7 8 9 10 11 12 13 14 15 16 17 18 19 20 21 22 23 24 25 26 27 28 29 30 31 32 33 34 35 36 37 38 39 40 41 42 43 44 45 46 47 48 49 50
000
ASUS43 KOAX 240410
RWRNE

WEATHER ROUNDUP FOR NEBRASKA
NATIONAL WEATHER SERVICE OMAHA NE
1100 PM CDT TUE SEP 23 2014

NOTES: SATELLITE DATA IS BEING USED TO AUGMENT CLOUD COVER ABOVE
       12000 FEET.
       "FAIR" INDICATES FEW OR NO CLOUDS BELOW 12,000 FEET WITH NO
       SIGNIFICANT WEATHER AND/OR OBSTRUCTIONS TO VISIBILITY.

  * THESE STATIONS DO NOT REPORT WEATHER SUCH AS RAIN...SNOW OR FOG.

NEZ001>004-019>022-054>056-240500-
NEBRASKA PANHANDLE

CITY           SKY/WX    TMP DP  RH WIND       PRES   REMARKS
SCOTTSBLUFF    CLEAR     58  50  75 CALM      30.08R
ALLIANCE       CLEAR     58  50  75 SW3       30.06R
CHADRON        CLEAR     58  52  80 SW3       30.02R
KIMBALL        CLEAR     57  46  65 NW5       30.13R
SIDNEY         CLEAR     56  49  77 SW9       30.11R
$$

NEZ057>060-069>072-079>082-240500-
SOUTHWEST NEBRASKA

CITY           SKY/WX    TMP DP  RH WIND       PRES   REMARKS
NORTH PLATTE   MOCLDY    65  58  78 E8        30.02R
IMPERIAL       CLEAR     62  50  64 W3        30.04R
LEXINGTON      MOCLDY    64  59  85 NE9       30.04R
MCCOOK         PTCLDY    69  60  73 SW7       30.00R
OGALLALA       PTCLDY    63  55  73 N3        30.04R
$$

NEZ005>010-023>029-035>040-094-240500-
NORTH CENTRAL NEBRASKA

CITY           SKY/WX    TMP DP  RH WIND       PRES   REMARKS
VALENTINE      MOCLDY    60  59  96 SW5       29.97S
AINSWORTH      PTCLDY    60  58  95 S8        29.98S
BROKEN BOW     MOCLDY    62  60  93 S10       30.02S
O`NEILL        PTCLDY    60  59  96 S10       30.01R
ORD            CLOUDY    60  58  92 SE8       30.01R
THEDFORD       PTCLDY    64  60  86 S9        30.02R
$$

NEZ041-046>049-061>064-073>077-083>087-240500-
SOUTH CENTRAL NEBRASKA

CITY           SKY/WX    TMP DP  RH WIND       PRES   REMARKS
GRAND ISLAND   TSTM      61  56  83 W6        30.11R
AURORA         LGT RAIN  61  55  82 SE9       30.07S
HASTINGS       MOCLDY    62  54  74 SE9       30.04R
HEBRON         MOCLDY    64  54  70 SE12G21   30.06S
HOLDREGE       PTCLDY    62  57  85 SE5       30.01R
KEARNEY *      CLOUDY    63  55  77 E12G23    30.04S
YORK           MOCLDY    61  55  82 SE9       30.08S
$$

NEZ011>018-030>034-042>045-240500-
NORTHEAST NEBRASKA

CITY           SKY/WX    TMP DP  RH WIND       PRES   REMARKS
NORFOLK        LGT RAIN  59  55  87 SE13      30.04F
ALBION         CLOUDY    58  55  91 S10       30.05S
BLAIR          CLOUDY    64  54  71 SE13G18   30.10R
COLUMBUS *     CLOUDY    61  54  77 S9        30.07F
FREMONT        MOCLDY    63  55  75 SE10G16   30.08F
TEKAMAH        MOCLDY    64  55  72 S10       30.09S
WAYNE          LGT RAIN  59  55  87 S10G17    30.06F
$$

NEZ050>053-065>068-078-088>093-240500-
SOUTHEAST NEBRASKA

CITY           SKY/WX    TMP DP  RH WIND       PRES   REMARKS
LINCOLN        MOCLDY    64  55  72 S13       30.09S
OMAHA EPPLEY   CLOUDY    64  53  67 SE16      30.11R
BEATRICE       MOCLDY    64  56  77 SE15      30.09S
FALLS CITY     CLOUDY    62  57  83 SE14      30.12F
NEBRASKA CITY  CLOUDY    64  52  67 S15       30.12R
PLATTSMOUTH    CLOUDY    62  54  73 SE10      30.11S
$$

NEZ044-045-051>053-067-240500-
OMAHA AREA

CITY           SKY/WX    TMP DP  RH WIND       PRES   REMARKS
OMAHA EPPLEY   CLOUDY    64  53  67 SE16      30.11R
BLAIR          CLOUDY    64  54  71 SE13G18   30.10R
FREMONT        MOCLDY    63  55  75 SE10G16   30.08F
MILLARD        MOCLDY    63  55  75 SE8       30.10S
OFFUTT AFB     CLOUDY    63  59  86 SE10      30.11S
PLATTSMOUTH    CLOUDY    62  54  73 SE10      30.11S
WAHOO          FAIR      61  55  79 SE7       30.09S
$$


USA.gov is the U.S. government's official web portal to all federal, state and local government web resources and services.